When you browse on this site, cookies collect data to enhance your experience and personalize the content and advertising you see.
Visit our Privacy Policy to learn more. By continuing to use the site, you agree to this use of cookies and data.
  • In United Kingdom
  • List of Countries
  • For 7 days
  • Water Temperature
  • Satellite Maps
  • Weather Map
  • Weather Widgets
  • user-avatar
    Login

    Hourly Weather Vasyl'ky

    Today, 27 June, Thursday

    Time Temperature Precipitation Wind Pressure Humidity
    00:00 +20°C° 0 mm 3 mps 754 mmHg 73%
    01:00 +20°C° 0 mm 3 mps 754 mmHg 74%
    02:00 +20°C° 0 mm 3 mps 753 mmHg 73%
    03:00 +20°C° 0 mm 3 mps 752 mmHg 75%
    04:00 +20°C° 0 mm 3 mps 752 mmHg 77%
    05:00 +20°C° 0 mm 3 mps 751 mmHg 80%
    06:00 +21°C° 0 mm 4 mps 751 mmHg 77%
    07:00 +23°C° 0 mm 4 mps 750 mmHg 74%
    08:00 +25°C° 0 mm 5 mps 750 mmHg 71%
    09:00 +26°C° 0 mm 5 mps 749 mmHg 66%
    10:00 +27°C° 0 mm 6 mps 748 mmHg 62%
    11:00 +29°C° 0 mm 7 mps 747 mmHg 58%
    12:00 +29°C° 0.2 mm 7 mps 747 mmHg 59%
    13:00 +29°C° 0.2 mm 8 mps 746 mmHg 61%
    14:00 +29°C° 0.2 mm 9 mps 746 mmHg 62%
    15:00 +28°C° 0.8 mm 8 mps 745 mmHg 69%
    16:00 +26°C° 0.8 mm 7 mps 744 mmHg 77%
    17:00 +24°C° 0.8 mm 7 mps 744 mmHg 84%
    18:00 +23°C° 0.4 mm 6 mps 743 mmHg 86%
    19:00 +22°C° 0.4 mm 5 mps 743 mmHg 89%
    20:00 +22°C° 0.4 mm 5 mps 742 mmHg 92%
    21:00 +21°C° 0.1 mm 5 mps 742 mmHg 92%
    22:00 +20°C° 0.1 mm 5 mps 742 mmHg 91%
    23:00 +19°C° 0.1 mm 5 mps 742 mmHg 91%

    Tomorrow, 28 June, Friday

    Time Temperature Precipitation Wind Pressure Humidity
    00:00 +17°C° 0 mm 5 mps 742 mmHg 91%
    01:00 +16°C° 0 mm 5 mps 742 mmHg 92%
    02:00 +15°C° 0 mm 5 mps 742 mmHg 92%
    03:00 +15°C° 0 mm 5 mps 742 mmHg 91%
    04:00 +15°C° 0 mm 6 mps 742 mmHg 90%
    05:00 +14°C° 0 mm 6 mps 742 mmHg 89%
    06:00 +15°C° 0 mm 7 mps 742 mmHg 83%
    07:00 +16°C° 0 mm 7 mps 742 mmHg 77%
    08:00 +17°C° 0 mm 8 mps 743 mmHg 71%
    09:00 +16°C° 0.1 mm 8 mps 743 mmHg 71%
    10:00 +16°C° 0.1 mm 8 mps 743 mmHg 71%
    11:00 +16°C° 0.1 mm 8 mps 743 mmHg 72%
    12:00 +17°C° 0.4 mm 8 mps 743 mmHg 72%
    13:00 +17°C° 0.4 mm 8 mps 743 mmHg 72%
    14:00 +17°C° 0.4 mm 9 mps 744 mmHg 72%
    15:00 +17°C° 0.2 mm 9 mps 744 mmHg 72%
    16:00 +17°C° 0.2 mm 8 mps 744 mmHg 72%
    17:00 +17°C° 0.2 mm 8 mps 744 mmHg 72%
    18:00 +16°C° 0.2 mm 7 mps 744 mmHg 76%
    19:00 +14°C° 0.2 mm 6 mps 744 mmHg 80%
    20:00 +13°C° 0.2 mm 5 mps 745 mmHg 84%
    21:00 +13°C° 0 mm 5 mps 745 mmHg 85%
    22:00 +12°C° 0 mm 5 mps 745 mmHg 86%
    23:00 +12°C° 0 mm 5 mps 745 mmHg 87%

    Day after tomorrow, 29 June, Saturday

    Time Temperature Precipitation Wind Pressure Humidity
    00:00 +10°C° 0 mm 5 mps 745 mmHg 87%
    01:00 +10°C° 0 mm 5 mps 745 mmHg 87%
    02:00 +10°C° 0 mm 6 mps 745 mmHg 87%
    03:00 +10°C° 0 mm 6 mps 745 mmHg 85%
    04:00 +10°C° 0 mm 6 mps 745 mmHg 83%
    05:00 +10°C° 0 mm 6 mps 745 mmHg 82%
    06:00 +11°C° 0 mm 7 mps 745 mmHg 73%
    07:00 +12°C° 0 mm 8 mps 746 mmHg 64%
    08:00 +13°C° 0 mm 9 mps 746 mmHg 56%
    09:00 +15°C° 0 mm 9 mps 746 mmHg 54%
    10:00 +16°C° 0 mm 9 mps 746 mmHg 51%
    11:00 +17°C° 0 mm 9 mps 746 mmHg 49%
    12:00 +17°C° 0 mm 9 mps 747 mmHg 49%
    13:00 +18°C° 0 mm 8 mps 747 mmHg 48%
    14:00 +18°C° 0 mm 8 mps 747 mmHg 48%
    15:00 +18°C° 0.1 mm 8 mps 747 mmHg 52%
    16:00 +17°C° 0.1 mm 7 mps 747 mmHg 55%
    17:00 +17°C° 0.1 mm 6 mps 747 mmHg 59%
    18:00 +15°C° 0.1 mm 5 mps 747 mmHg 67%
    19:00 +14°C° 0.1 mm 4 mps 748 mmHg 75%
    20:00 +12°C° 0.1 mm 3 mps 748 mmHg 83%
    21:00 +12°C° 0 mm 3 mps 748 mmHg 85%
    22:00 +11°C° 0 mm 3 mps 748 mmHg 88%
    23:00 +10°C° 0 mm 3 mps 748 mmHg 90%

    30 June, Sunday

    Time Temperature Precipitation Wind Pressure Humidity
    00:00 +10°C° 0 mm 3 mps 748 mmHg 90%
    01:00 +10°C° 0 mm 3 mps 749 mmHg 90%
    02:00 +10°C° 0 mm 3 mps 749 mmHg 91%
    03:00 +10°C° 0 mm 3 mps 749 mmHg 91%
    04:00 +10°C° 0 mm 3 mps 749 mmHg 91%
    05:00 +10°C° 0 mm 3 mps 749 mmHg 91%
    06:00 +12°C° 0 mm 4 mps 749 mmHg 86%
    07:00 +14°C° 0 mm 4 mps 749 mmHg 81%
    08:00 +17°C° 0 mm 4 mps 749 mmHg 76%
    09:00 +18°C° 0.1 mm 4 mps 749 mmHg 72%
    10:00 +19°C° 0.1 mm 4 mps 750 mmHg 67%
    11:00 +21°C° 0.1 mm 4 mps 750 mmHg 63%
    12:00 +21°C° 0.4 mm 4 mps 750 mmHg 64%
    13:00 +21°C° 0.4 mm 5 mps 750 mmHg 66%
    14:00 +21°C° 0.4 mm 5 mps 750 mmHg 68%
    15:00 +21°C° 0 mm 5 mps 750 mmHg 66%
    16:00 +22°C° 0 mm 5 mps 750 mmHg 65%
    17:00 +22°C° 0 mm 5 mps 750 mmHg 64%
    18:00 +20°C° 0 mm 4 mps 750 mmHg 71%
    19:00 +19°C° 0 mm 3 mps 751 mmHg 77%
    20:00 +18°C° 0 mm 3 mps 751 mmHg 84%
    21:00 +17°C° 0 mm 3 mps 751 mmHg 86%
    22:00 +16°C° 0 mm 3 mps 751 mmHg 87%
    23:00 +14°C° 0 mm 3 mps 752 mmHg 89%

    1 July, Monday

    Time Temperature Precipitation Wind Pressure Humidity
    00:00 +14°C° 0 mm 3 mps 752 mmHg 89%
    01:00 +15°C° 0 mm 2 mps 752 mmHg 90%
    02:00 +14°C° 0 mm 2 mps 752 mmHg 90%
    03:00 +15°C° 0 mm 2 mps 752 mmHg 88%
    04:00 +15°C° 0 mm 2 mps 752 mmHg 86%
    05:00 +15°C° 0 mm 2 mps 752 mmHg 85%
    06:00 +17°C° 0 mm 3 mps 752 mmHg 79%
    07:00 +19°C° 0 mm 3 mps 752 mmHg 73%
    08:00 +21°C° 0 mm 4 mps 751 mmHg 67%
    09:00 +23°C° 0 mm 4 mps 751 mmHg 64%
    10:00 +25°C° 0 mm 5 mps 751 mmHg 61%
    11:00 +27°C° 0 mm 5 mps 751 mmHg 59%
    12:00 +28°C° 0 mm 5 mps 750 mmHg 58%
    13:00 +29°C° 0 mm 5 mps 750 mmHg 58%
    14:00 +29°C° 0 mm 6 mps 750 mmHg 58%
    15:00 +29°C° 0 mm 5 mps 749 mmHg 60%
    16:00 +29°C° 0 mm 5 mps 749 mmHg 63%
    17:00 +29°C° 0 mm 5 mps 749 mmHg 65%
    18:00 +28°C° 0 mm 5 mps 749 mmHg 70%
    19:00 +27°C° 0 mm 4 mps 749 mmHg 75%
    20:00 +25°C° 0 mm 4 mps 749 mmHg 80%
    21:00 +25°C° 0 mm 4 mps 748 mmHg 83%
    22:00 +23°C° 0 mm 4 mps 748 mmHg 86%
    23:00 +22°C° 0 mm 3 mps 748 mmHg 89%

    2 July, Tuesday

    Time Temperature Precipitation Wind Pressure Humidity
    00:00 +22°C° 0.2 mm 3 mps 748 mmHg 91%
    01:00 +22°C° 0.2 mm 3 mps 748 mmHg 93%
    02:00 +21°C° 0.2 mm 4 mps 748 mmHg 94%
    03:00 +21°C° 0.2 mm 4 mps 748 mmHg 94%
    04:00 +21°C° 0.2 mm 4 mps 747 mmHg 94%
    05:00 +21°C° 0.2 mm 4 mps 747 mmHg 93%
    06:00 +23°C° 0 mm 4 mps 748 mmHg 89%
    07:00 +25°C° 0 mm 4 mps 748 mmHg 84%
    08:00 +26°C° 0 mm 4 mps 748 mmHg 79%
    09:00 +27°C° 0.2 mm 4 mps 748 mmHg 75%
    10:00 +28°C° 0.2 mm 4 mps 748 mmHg 71%
    11:00 +29°C° 0.2 mm 5 mps 748 mmHg 67%
    12:00 +28°C° 0.8 mm 5 mps 748 mmHg 68%
    13:00 +28°C° 0.8 mm 5 mps 748 mmHg 68%
    14:00 +28°C° 0.8 mm 5 mps 748 mmHg 68%
    15:00 +28°C° 0.1 mm 5 mps 748 mmHg 66%
    16:00 +28°C° 0.1 mm 5 mps 748 mmHg 64%
    17:00 +28°C° 0.1 mm 5 mps 748 mmHg 62%
    18:00 +26°C° 0 mm 4 mps 748 mmHg 67%
    19:00 +24°C° 0 mm 3 mps 748 mmHg 71%
    20:00 +23°C° 0 mm 2 mps 748 mmHg 76%
    21:00 +21°C° 0 mm 2 mps 749 mmHg 75%
    22:00 +20°C° 0 mm 2 mps 749 mmHg 75%
    23:00 +19°C° 0 mm 2 mps 749 mmHg 75%
    Show more